Погода в Данилове

Россия / Ярославская область     58˚11′16″N   40˚10′29″E
темп.,
°C
ветер,
м/с
пор.,
м/с
влажн.,
%
обл.,
%
осадки,
мм/ч
давл.,
гПа
погр.,
м
15 января, пт
пт1500:00−19˚св3697100 0.4 1009232
03:00−19˚св2598100 0.4 1009113
06:00−19˚ссв2498100 0.1 1009113
09:00−18˚с2498100 0.2 1010116
12:00−17˚ссв129677 0.0 1012113
15:00−17˚ссв239883 0.1 101394
18:00−18˚ссв1298100 0.1 101320
21:00−17˚ссв2497100 0.1 1014136
16 января, сб
сб1600:00−17˚ссв2597100 0.0 1013197
03:00−16˚ссв3795100 0.1 1013272
06:00−17˚с4895100 0.1 1010325
09:00−18˚ссв41094100 0.2 1009359
12:00−18˚с51093100 0.0 1008406
15:00−18˚с51293100 0.0 1007421
18:00−19˚с51292100 0.0 1007488
21:00−20˚с41093100 0.0 1008429
17 января, вс
вс1700:00−23˚с31096100 0.0 1009311
03:00−24˚ссз499585 0.0 1010255
06:00−25˚ссз379730 0.0 1011192
09:00−26˚ссз249821 0.0 101497
12:00−21˚ссз239630 0.0 1015143
15:00−19˚сз239622 0.0 101679
18:00−22˚сз229633 0.0 101722
21:00−23˚з129554 0.0 101820
18 января, пн
пн1800:00−23˚з229470 0.0 101821
03:00−22˚з229773 0.0 101826
06:00−21˚зюз229893 0.0 101721
09:00−20˚юз249893 0.1 1018104
12:00−17˚зюз239598 0.2 1018184
15:00−16˚юз129690 0.2 101838
18:00−18˚юз229881 0.0 101823
21:00−18˚зюз129787 0.1 101920
19 января, вт
вт1900:00−19˚ююз119892 0.1 101920
03:00−17˚ю119895 0.1 101920
06:00−19˚ююв119984 0.1 101920
09:00−19˚юв119884 0.1 102021
12:00−16˚ююв129581 0.1 1021164
15:00−17˚ю119787 0.1 102027
18:00−20˚ю119989 0.0 102220
21:00−21˚ю119979 0.0 102220